Location: Proctor
(47.8934°N, 114.3048°W)
Time: 21:42:05
(UTC+00:00)

Tiros 1 despin weight - Pass Details

Date: 04 July 2024
Orbit: 576 x 620 km, 48.2° (Epoch: 19 July)

Event Time Altitude Azimuth Distance (km) Brightness Sun altitude
Rises 14:38:14 0° 212° (SSW) 2,835 ? 26.0°
Reaches altitude 10° 14:40:48 10° 200° (SSW) 1,944 ? 26.4°
Maximum altitude 14:44:28 25° 144° (SE) 1,225 ? 27.0°
Drops below altitude 10° 14:48:11 10° 89° (E) 1,973 ? 27.6°
Sets 14:50:48 0° 76° (ENE) 2,887 ? 28.1°
